Theta_e
320 321 321 324 326 327 328 328 328 329 329 329 330 329 329 328 327 321 316 322 322 326 324 315 313 311 309 307 309 307 303 300 301 299 302 307 305 306 312 314 317 319 317 324 332
319 320 321 323 325 326 327 327 327 328 328 328 329 329 328 327 320 315 323 324 327 327 316 314 315 314 305 306 308 305 303 301 304 303 303 306 307 306 309 312 313 315 322 329 330
318 319 320 323 324 324 325 326 325 326 327 328 327 328 327 325 313 313 327 326 329 326 316 314 315 311 304 306 306 305 303 303 301 304 303 304 305 308 308 307 311 313 319 325 327
317 319 319 321 324 323 325 325 325 325 326 327 327 326 325 321 301 318 328 329 329 322 315 311 308 303 302 302 306 302 301 302 302 302 302 302 304 305 308 308 311 317 323 324 324
317 318 319 321 323 323 323 322 324 323 325 326 326 325 320 311 310 318 327 328 324 320 312 309 306 304 301 304 304 303 300 302 301 303 302 302 303 305 306 309 311 319 323 323 324
317 318 319 320 322 322 323 322 320 320 322 325 325 324 315 303 316 319 319 323 321 316 313 310 308 310 304 303 303 306 303 304 303 302 301 301 301 302 306 311 313 319 321 324 325
316 317 318 318 320 321 321 322 322 320 319 324 325 320 311 308 319 322 322 321 316 316 312 312 313 309 307 302 305 305 302 305 305 304 300 301 301 300 306 312 313 317 321 323 323
316 316 317 317 318 319 320 320 320 321 320 319 324 318 306 316 320 317 317 314 315 315 314 314 315 308 306 305 305 302 303 298 304 303 304 303 297 305 305 310 310 315 319 322 323
314 315 316 318 318 318 319 319 319 320 320 320 315 312 304 316 311 316 316 311 312 313 314 315 313 307 304 302 298 299 296 298 300 305 306 301 300 304 303 308 309 313 317 320 322
314 314 315 316 317 317 318 319 318 318 316 316 315 306 306 305 310 312 315 314 310 310 308 308 308 303 302 299 292 294 295 297 298 301 301 303 301 301 306 304 306 310 315 318 320
313 313 314 314 314 316 315 312 305 303 307 302 304 304 306 310 312 309 312 311 310 307 300 304 298 296 299 301 302 303 300 298 301 300 301 301 302 302 306 303 303 307 311 316 319
312 312 312 312 313 315 314 303 304 309 299 305 307 308 308 310 302 306 312 304 303 297 302 299 296 303 303 302 302 300 299 299 298 297 300 302 300 306 308 308 305 304 307 312 317
312 312 311 311 313 312 307 306 315 313 299 300 306 305 304 308 301 302 307 305 301 297 298 296 299 304 303 300 298 299 298 299 297 296 296 291 295 301 305 309 309 304 305 310 314
311 311 311 310 307 307 304 311 315 313 289 292 299 303 305 306 299 307 309 305 300 296 298 298 303 301 300 300 300 292 299 298 293 293 290 295 288 300 302 304 305 302 302 306 311
311 311 310 311 305 302 305 313 313 307 278 294 297 309 307 300 300 301 308 304 297 297 298 296 298 299 297 299 303 295 298 296 294 291 290 291 286 297 302 299 303 306 305 304 307
310 310 309 307 306 307 310 313 305 285 279 286 296 297 298 299 299 302 301 304 306 299 298 296 299 302 301 303 303 297 294 293 291 289 283 291 290 294 299 299 302 305 304 303 304
309 308 307 306 299 308 309 302 283 279 287 283 289 296 295 294 295 297 295 294 293 289 289 293 296 296 301 295 297 296 293 284 282 283 285 288 291 295 302 305 304 304 305 304 304
307 306 305 305 308 309 303 287 277 284 285 289 293 295 291 294 293 295 294 292 296 296 291 288 286 293 297 297 292 292 293 287 281 283 287 286 286 294 300 304 305 301 302 304 304
306 303 300 302 305 306 292 279 282 286 288 289 293 289 289 292 292 293 293 293 296 298 291 288 287 294 297 297 297 290 289 292 286 279 283 288 291 295 297 297 295 299 304 302 301
299 296 295 303 305 299 287 281 284 289 292 293 286 290 286 288 289 291 291 296 295 297 300 294 286 290 293 296 295 295 296 287 288 282 281 288 286 290 295 297 297 296 297 301 304
297 289 299 305 303 292 282 282 287 290 294 292 289 289 289 288 292 291 291 295 297 294 298 296 291 285 291 290 289 290 289 290 290 289 284 283 289 296 295 297 296 297 296 297 299
292 285 299 303 287 286 285 286 290 288 292 294 294 294 291 293 290 290 290 293 298 295 292 292 290 284 285 290 296 295 292 292 288 284 286 285 288 293 292 292 293 295 296 297 297
287 289 297 299 282 284 288 288 290 288 288 292 290 293 295 291 288 289 292 295 298 296 293 292 287 281 282 286 289 290 293 294 293 289 285 285 289 291 293 294 294 295 297 297 297
290 284 289 292 290 287 286 287 287 292 288 291 291 295 292 289 291 287 291 293 297 298 295 295 288 287 284 287 289 286 290 292 292 286 288 289 292 297 298 296 295 295 298 300 298
289 285 286 282 284 288 289 288 286 286 288 291 290 292 290 285 286 288 290 290 295 297 295 294 286 287 287 289 289 290 290 290 289 292 288 291 292 296 299 300 302 299 297 297 298
285 285 286 285 287 287 287 285 286 287 287 287 289 291 292 288 289 287 290 291 290 294 293 291 285 288 284 288 289 287 290 292 292 292 292 293 292 300 299 297 296 296 295 296 298
290 290 289 286 286 285 286 287 287 289 291 292 294 291 290 291 294 296 296 295 294 293 291 289 287 286 282 286 287 283 287 290 291 293 294 289 295 299 297 297 299 300 298 296 298
Wind_Speed
17 17 17 17 18 19 18 17 15 14 15 13 12 13 15 14 11 5 10 5 7 7 4 1 5 4 1 3 4 2 5 7 6 5 2 9 8 2 1 7 3 5 1 1 18
17 16 17 17 18 18 18 17 14 13 16 14 13 13 14 16 4 8 5 4 8 10 7 10 10 9 4 5 4 4 8 7 2 2 2 8 8 10 7 6 6 7 5 11 16
17 16 16 17 19 20 17 15 16 17 17 16 13 12 14 9 4 8 18 9 11 9 4 6 5 9 8 5 8 5 10 5 3 1 2 3 6 6 7 8 10 13 14 16 14
17 16 15 16 19 20 18 16 15 15 16 17 15 12 18 12 10 9 23 21 12 11 7 7 6 4 6 10 9 11 3 4 4 2 1 1 2 6 13 2 3 6 17 20 19
16 16 13 17 20 20 17 14 14 13 13 16 17 16 12 9 11 5 13 21 16 14 13 13 13 8 8 11 10 15 9 6 6 7 3 1 5 6 10 5 2 11 17 20 20
17 14 12 16 20 21 20 18 17 12 13 18 18 21 11 21 3 5 12 18 16 17 17 13 10 10 10 6 15 12 10 7 5 6 4 3 3 3 2 8 6 13 16 18 20
16 15 13 16 20 21 18 18 19 16 12 16 17 18 16 18 7 12 16 17 10 15 16 13 4 4 1 4 3 5 12 6 11 7 4 2 5 8 2 8 9 13 14 16 18
18 16 14 15 18 17 16 17 17 18 16 12 15 18 10 5 8 17 16 13 9 6 6 5 4 6 4 2 4 8 7 16 7 9 7 6 14 14 4 9 12 12 12 14 18
19 16 13 16 15 17 16 16 15 13 20 14 8 15 11 11 15 17 17 18 14 7 4 5 3 7 2 8 4 4 11 17 11 4 8 8 10 7 2 7 12 12 13 14 15
19 16 15 13 13 14 15 15 14 12 13 8 9 13 13 17 13 13 11 21 14 14 7 7 4 8 6 11 14 9 12 7 17 6 8 21 20 15 12 8 12 11 12 14 15
20 17 16 14 12 14 11 5 6 9 9 14 5 7 13 13 17 11 20 17 13 15 11 8 9 21 20 17 11 15 15 19 8 5 8 20 22 21 19 10 13 14 14 15 16
21 18 16 15 12 15 13 8 19 3 11 20 16 11 11 19 9 18 21 13 17 13 14 8 20 19 14 16 14 10 14 13 6 3 6 12 18 21 23 22 16 16 15 17 14
21 18 16 14 11 9 15 20 6 5 6 14 13 16 18 22 13 22 21 15 20 16 17 18 11 11 15 13 10 11 18 15 5 5 1 3 15 24 26 26 24 18 18 14 18
21 20 17 13 8 7 12 15 10 3 5 7 14 10 16 17 10 21 14 10 7 13 18 11 11 17 14 18 17 8 4 7 10 5 4 7 10 16 17 23 24 20 18 18 18
21 20 18 16 8 9 6 9 8 3 14 15 17 10 19 18 21 16 4 4 19 13 7 10 17 19 21 19 18 4 9 8 4 5 3 6 6 9 10 17 18 25 22 21 20
20 19 16 8 3 4 4 11 8 7 9 10 8 15 22 10 17 10 7 4 10 15 5 4 1 10 10 13 18 16 13 13 8 3 7 11 11 16 15 17 15 19 21 22 21
21 19 13 6 5 8 4 6 8 9 3 9 12 19 32 16 10 25 12 14 12 14 13 5 8 2 9 13 17 8 11 4 3 5 8 2 14 21 11 17 19 19 19 18 18
21 17 9 4 4 8 5 5 8 7 10 3 11 28 15 25 19 21 24 13 9 13 14 12 8 11 5 9 9 7 8 7 11 9 5 2 12 5 13 18 18 14 13 12 15
20 5 3 4 4 3 4 5 6 4 9 14 19 23 13 15 10 19 25 23 13 20 14 16 7 2 4 7 16 5 5 4 4 2 1 6 8 11 16 13 11 16 17 16 14
5 4 3 7 8 3 3 15 6 8 8 18 13 13 15 13 17 16 25 23 16 13 11 14 8 0 4 6 5 13 14 6 2 6 7 9 8 10 11 13 16 14 16 17 17
6 5 6 12 7 3 7 9 6 8 14 21 12 10 17 25 24 26 29 20 17 14 9 14 8 4 6 6 9 8 6 2 1 3 5 5 7 5 8 11 9 7 6 8 11
4 6 6 11 6 3 6 8 6 3 15 9 10 13 24 30 19 14 21 12 18 15 18 4 7 7 3 1 7 4 9 9 7 7 5 5 13 5 3 3 3 8 9 8 7
6 2 1 4 7 7 5 6 10 6 9 9 8 7 21 17 13 8 14 6 21 20 20 11 6 9 4 4 4 10 10 12 4 1 9 6 11 1 5 3 3 4 8 8 9
4 5 3 4 1 9 7 5 7 11 8 6 6 17 20 12 7 10 18 7 20 22 7 7 6 9 12 9 13 8 17 18 15 5 17 16 29 17 9 7 2 3 9 11 6
1 3 1 8 10 9 11 10 7 6 7 6 3 22 24 8 9 12 10 9 10 14 7 6 5 6 4 11 11 16 21 20 22 30 15 29 27 26 20 20 19 9 9 8 8
4 4 2 1 6 11 10 9 5 5 9 11 17 24 22 18 13 29 22 15 15 14 12 3 5 8 4 10 7 8 19 26 30 29 25 29 25 17 10 5 9 11 9 10 9
2 1 1 4 5 9 8 8 4 8 10 8 21 26 25 12 13 19 14 14 18 22 15 11 7 6 7 9 7 6 21 23 22 24 25 22 34 11 9 11 15 15 11 13 11
Wind_Direction
233 231 238 246 225 218 214 211 200 184 182 189 191 191 189 150 122 152 210 183 181 169 176 297 220 223 174 204 169 164 216 211 207 194 176 156 183 171 58 136 170 166 138 83 143
232 236 232 239 221 215 208 204 205 190 179 186 193 195 177 147 149 213 203 226 202 162 171 187 205 192 203 195 187 174 228 200 35 342 355 181 206 164 180 164 187 176 129 147 146
230 230 234 230 215 217 209 202 208 204 187 179 191 191 168 156 218 231 202 213 205 193 190 194 201 202 204 200 183 154 223 157 52 17 304 196 215 181 185 202 203 200 162 169 159
225 231 230 234 206 209 205 205 211 213 194 177 186 179 152 177 236 190 181 195 207 200 178 185 188 189 199 192 176 189 198 181 133 44 172 166 143 211 223 241 352 187 162 167 170
220 225 234 221 206 202 201 203 203 197 201 188 182 163 163 209 221 160 181 188 188 194 197 188 181 197 192 201 176 219 177 152 145 89 80 97 255 242 239 246 351 156 161 176 181
216 218 221 213 202 199 194 188 186 173 189 194 185 161 200 224 141 159 182 171 182 189 202 196 196 192 220 200 208 195 182 165 181 113 71 6 330 255 241 171 160 173 178 181 191
212 211 215 218 199 197 192 193 193 192 178 197 180 173 215 212 186 150 147 161 172 191 189 196 175 136 192 145 171 159 183 192 204 178 91 333 252 235 287 186 187 198 192 185 198
209 205 209 207 199 193 191 194 205 201 209 198 199 181 221 150 169 149 146 127 154 180 224 173 143 94 357 73 112 193 220 202 168 175 166 350 274 286 221 215 206 202 203 196 202
205 198 192 191 187 189 195 199 202 206 202 207 216 193 198 134 173 169 161 147 143 125 151 144 141 140 77 203 121 212 209 216 208 223 179 208 273 281 72 258 246 209 206 208 204
192 181 181 175 183 189 194 193 194 205 213 247 233 195 154 174 149 159 163 147 143 131 119 184 175 179 172 205 191 168 194 204 216 184 213 229 246 270 276 253 252 256 226 216 212
183 175 177 174 186 189 178 167 183 204 202 216 251 176 159 127 130 172 153 141 150 160 174 177 187 204 191 198 231 199 204 210 214 124 209 228 238 255 260 259 263 243 239 229 218
177 174 175 178 188 188 184 200 203 138 205 222 212 200 156 137 140 158 162 144 163 176 155 159 219 200 196 200 214 177 198 206 126 103 220 244 263 256 257 252 253 257 240 230 222
169 169 168 171 182 174 201 210 183 277 235 196 187 180 161 163 152 167 175 153 165 167 187 196 192 171 178 190 189 193 205 192 185 136 280 322 270 261 256 248 248 251 249 235 219
168 167 162 152 150 178 214 212 232 289 230 217 185 191 163 148 160 164 174 145 153 174 177 222 177 176 194 195 189 184 219 148 134 145 223 188 284 259 249 243 228 238 233 226 219
172 167 167 167 132 188 177 170 140 225 218 167 174 180 154 168 128 184 180 160 156 148 160 176 174 184 191 197 189 133 151 130 135 107 9 203 258 261 241 245 236 231 235 228 220
172 169 164 183 177 149 194 146 144 219 233 158 175 186 153 145 163 136 152 67 145 139 86 105 359 171 175 176 165 126 88 61 52 73 244 215 213 262 238 238 242 237 228 225 220
171 170 167 156 192 199 97 152 205 209 203 158 175 168 166 161 138 157 161 150 156 150 166 141 158 109 164 103 142 128 147 105 180 198 246 335 221 250 261 244 240 235 227 222 222
160 160 162 173 72 130 130 143 256 143 180 190 182 156 155 152 164 172 158 163 169 178 148 173 177 171 166 159 164 153 170 168 200 211 224 63 238 245 252 260 259 254 257 249 228
150 144 114 189 176 172 131 235 265 186 143 157 173 152 141 158 136 159 180 177 166 166 154 176 158 124 125 153 149 156 187 67 108 45 227 222 276 248 262 256 261 253 247 249 244
112 124 169 179 164 116 177 208 255 301 159 161 165 166 155 151 143 168 171 187 177 197 144 158 120 125 130 95 44 184 149 155 124 194 241 237 265 258 287 270 231 242 243 251 253
109 158 167 164 139 158 191 220 258 268 242 169 158 160 169 166 165 167 171 169 168 174 179 165 124 123 142 190 165 144 173 93 158 242 243 286 266 204 270 285 308 285 288 277 269
138 167 146 164 160 166 216 195 180 270 276 206 156 181 164 167 161 158 181 169 157 155 157 122 111 127 101 271 166 143 163 177 193 186 255 317 254 174 197 336 275 301 297 294 295
141 115 149 207 176 196 185 185 205 188 262 194 167 182 159 155 148 120 153 142 164 173 161 170 123 116 101 63 318 210 194 205 192 78 204 201 261 61 223 190 168 291 328 336 333
128 136 150 218 145 194 181 198 218 212 243 250 148 138 146 139 90 149 154 159 175 176 116 138 155 177 185 187 136 184 193 197 200 199 227 229 260 234 240 238 301 337 334 321 315
120 154 241 178 192 208 184 168 192 212 220 229 141 156 149 129 127 145 136 120 165 163 147 154 130 129 89 146 152 192 194 187 201 225 212 238 244 250 255 267 289 302 297 300 307
144 160 163 196 136 168 189 204 193 190 187 206 161 166 166 175 185 172 157 160 167 182 163 144 131 141 74 151 156 170 202 198 208 225 233 250 267 264 245 312 274 276 268 288 287
128 72 218 145 152 183 208 187 201 213 227 243 170 165 191 183 156 158 139 145 155 167 164 159 137 140 164 162 141 264 208 200 210 217 224 233 241 249 269 258 259 266 260 246 263